When you browse on this site, cookies collect data to enhance your experience and personalize the content and advertising you see.
Visit our Privacy Policy to learn more. By continuing to use the site, you agree to this use of cookies and data.
  • Em Portugal
  • Lista de países
  • Para 7 dias
  • Temperatura da água
  • Mapas de satélite
  • Mapa do tempo
  • Widgets de tempo
  • user-avatar
    Iniciar Sessão

    Previsão horária em Szczekarzow

    Hoje, 19 Junho, Quarta-feira

    Tempo Temperatura Precipitação Vento Pressão Humidade
    00:00 +18°C° 0 mm 3 m/s 741 mmHg 95%
    01:00 +18°C° 0 mm 3 m/s 740 mmHg 96%
    02:00 +18°C° 0 mm 2 m/s 740 mmHg 96%
    03:00 +18°C° 0 mm 2 m/s 740 mmHg 97%
    04:00 +17°C° 0 mm 2 m/s 740 mmHg 98%
    05:00 +18°C° 0 mm 2 m/s 740 mmHg 95%
    06:00 +19°C° 0 mm 2 m/s 740 mmHg 92%
    07:00 +22°C° 0 mm 1 m/s 740 mmHg 89%
    08:00 +23°C° 0 mm 1 m/s 739 mmHg 84%
    09:00 +25°C° 0 mm 1 m/s 739 mmHg 78%
    10:00 +26°C° 0 mm 1 m/s 739 mmHg 72%
    11:00 +27°C° 0.1 mm 1 m/s 739 mmHg 67%
    12:00 +28°C° 0.1 mm 1 m/s 739 mmHg 61%
    13:00 +29°C° 0.1 mm 1 m/s 738 mmHg 56%
    14:00 +29°C° 0.1 mm 1 m/s 738 mmHg 55%
    15:00 +29°C° 0.1 mm 1 m/s 738 mmHg 55%
    16:00 +29°C° 0.1 mm 1 m/s 737 mmHg 54%
    17:00 +28°C° 0.5 mm 1 m/s 737 mmHg 60%
    18:00 +27°C° 0.5 mm 1 m/s 737 mmHg 67%
    19:00 +25°C° 0.5 mm 1 m/s 737 mmHg 73%
    20:00 +24°C° 0.3 mm 1 m/s 737 mmHg 76%
    21:00 +23°C° 0.3 mm 1 m/s 737 mmHg 79%
    22:00 +22°C° 0.3 mm 1 m/s 737 mmHg 82%
    23:00 +21°C° 0 mm 1 m/s 737 mmHg 83%

    Amanhã, 20 Junho, Quinta-feira

    Tempo Temperatura Precipitação Vento Pressão Humidade
    00:00 +21°C° 0 mm 1 m/s 737 mmHg 84%
    01:00 +21°C° 0 mm 1 m/s 737 mmHg 85%
    02:00 +20°C° 0 mm 1 m/s 737 mmHg 85%
    03:00 +20°C° 0 mm 1 m/s 737 mmHg 85%
    04:00 +20°C° 0 mm 1 m/s 737 mmHg 85%
    05:00 +21°C° 0 mm 1 m/s 737 mmHg 82%
    06:00 +23°C° 0 mm 1 m/s 737 mmHg 78%
    07:00 +24°C° 0 mm 1 m/s 737 mmHg 75%
    08:00 +25°C° 0.2 mm 1 m/s 738 mmHg 71%
    09:00 +27°C° 0.2 mm 1 m/s 738 mmHg 66%
    10:00 +28°C° 0.2 mm 1 m/s 738 mmHg 62%
    11:00 +28°C° 0.4 mm 1 m/s 738 mmHg 60%
    12:00 +28°C° 0.4 mm 1 m/s 737 mmHg 59%
    13:00 +29°C° 0.4 mm 1 m/s 737 mmHg 58%
    14:00 +28°C° 0.2 mm 1 m/s 737 mmHg 62%
    15:00 +27°C° 0.2 mm 2 m/s 737 mmHg 66%
    16:00 +27°C° 0.2 mm 2 m/s 737 mmHg 70%
    17:00 +26°C° 0.1 mm 2 m/s 737 mmHg 72%
    18:00 +25°C° 0.1 mm 1 m/s 737 mmHg 75%
    19:00 +25°C° 0.1 mm 1 m/s 737 mmHg 77%
    20:00 +23°C° 0 mm 1 m/s 737 mmHg 79%
    21:00 +22°C° 0 mm 1 m/s 737 mmHg 81%
    22:00 +21°C° 0 mm 1 m/s 738 mmHg 83%
    23:00 +21°C° 0.1 mm 1 m/s 738 mmHg 85%

    Depois de amanhã, 21 Junho, Sexta-feira

    Tempo Temperatura Precipitação Vento Pressão Humidade
    00:00 +20°C° 0.1 mm 1 m/s 738 mmHg 86%
    01:00 +20°C° 0.1 mm 1 m/s 738 mmHg 87%
    02:00 +20°C° 0.1 mm 1 m/s 738 mmHg 88%
    03:00 +19°C° 0.1 mm 1 m/s 738 mmHg 89%
    04:00 +19°C° 0.1 mm 1 m/s 738 mmHg 90%
    05:00 +21°C° 0 mm 1 m/s 738 mmHg 87%
    06:00 +22°C° 0 mm 1 m/s 739 mmHg 84%
    07:00 +23°C° 0 mm 2 m/s 739 mmHg 81%
    08:00 +25°C° 1.3 mm 2 m/s 739 mmHg 78%
    09:00 +26°C° 1.3 mm 2 m/s 739 mmHg 74%
    10:00 +27°C° 1.3 mm 2 m/s 739 mmHg 70%
    11:00 +27°C° 0.6 mm 1 m/s 739 mmHg 67%
    12:00 +28°C° 0.6 mm 1 m/s 739 mmHg 63%
    13:00 +28°C° 0.6 mm 1 m/s 739 mmHg 59%
    14:00 +28°C° 0.4 mm 2 m/s 739 mmHg 63%
    15:00 +27°C° 0.4 mm 2 m/s 738 mmHg 66%
    16:00 +27°C° 0.4 mm 2 m/s 738 mmHg 70%
    17:00 +26°C° 0.2 mm 2 m/s 738 mmHg 75%
    18:00 +24°C° 0.2 mm 2 m/s 738 mmHg 80%
    19:00 +23°C° 0.2 mm 2 m/s 738 mmHg 85%
    20:00 +23°C° 0.1 mm 2 m/s 739 mmHg 86%
    21:00 +21°C° 0.1 mm 2 m/s 739 mmHg 88%
    22:00 +20°C° 0.1 mm 2 m/s 739 mmHg 89%
    23:00 +20°C° 0.5 mm 2 m/s 739 mmHg 91%

    22 Junho, Sábado

    Tempo Temperatura Precipitação Vento Pressão Humidade
    00:00 +19°C° 0.5 mm 2 m/s 739 mmHg 93%
    01:00 +19°C° 0.5 mm 3 m/s 739 mmHg 95%
    02:00 +18°C° 1.1 mm 2 m/s 739 mmHg 95%
    03:00 +18°C° 1.1 mm 2 m/s 739 mmHg 95%
    04:00 +18°C° 1.1 mm 2 m/s 739 mmHg 96%
    05:00 +19°C° 0.5 mm 2 m/s 740 mmHg 94%
    06:00 +20°C° 0.5 mm 3 m/s 740 mmHg 92%
    07:00 +20°C° 0.5 mm 3 m/s 740 mmHg 91%
    08:00 +21°C° 1.2 mm 2 m/s 740 mmHg 87%
    09:00 +23°C° 1.2 mm 2 m/s 740 mmHg 83%
    10:00 +24°C° 1.2 mm 2 m/s 741 mmHg 79%
    11:00 +25°C° 1.3 mm 2 m/s 740 mmHg 78%
    12:00 +25°C° 1.3 mm 2 m/s 740 mmHg 78%
    13:00 +25°C° 1.3 mm 2 m/s 740 mmHg 78%
    14:00 +24°C° 1.8 mm 2 m/s 740 mmHg 82%
    15:00 +22°C° 1.8 mm 3 m/s 739 mmHg 86%
    16:00 +21°C° 1.8 mm 3 m/s 739 mmHg 90%
    17:00 +21°C° 1.7 mm 2 m/s 739 mmHg 91%
    18:00 +20°C° 1.7 mm 2 m/s 739 mmHg 92%
    19:00 +21°C° 1.7 mm 1 m/s 739 mmHg 93%
    20:00 +20°C° 1.2 mm 1 m/s 739 mmHg 94%
    21:00 +20°C° 1.2 mm 1 m/s 739 mmHg 95%
    22:00 +20°C° 1.2 mm 1 m/s 739 mmHg 97%
    23:00 +20°C° 0.7 mm 1 m/s 739 mmHg 97%

    23 Junho, Domingo

    Tempo Temperatura Precipitação Vento Pressão Humidade
    00:00 +19°C° 0.7 mm 1 m/s 739 mmHg 97%
    01:00 +19°C° 0.7 mm 1 m/s 739 mmHg 97%
    02:00 +19°C° 0.1 mm 1 m/s 738 mmHg 97%
    03:00 +19°C° 0.1 mm 1 m/s 738 mmHg 97%
    04:00 +18°C° 0.1 mm 1 m/s 738 mmHg 97%
    05:00 +19°C° 0.1 mm 1 m/s 738 mmHg 95%
    06:00 +19°C° 0.1 mm 2 m/s 738 mmHg 93%
    07:00 +20°C° 0.1 mm 2 m/s 738 mmHg 90%
    08:00 +21°C° 0.3 mm 3 m/s 738 mmHg 88%
    09:00 +22°C° 0.3 mm 4 m/s 738 mmHg 86%
    10:00 +22°C° 0.3 mm 5 m/s 738 mmHg 84%
    11:00 +22°C° 0.4 mm 6 m/s 739 mmHg 83%
    12:00 +21°C° 0.4 mm 6 m/s 739 mmHg 83%
    13:00 +20°C° 0.4 mm 7 m/s 739 mmHg 82%
    14:00 +18°C° 0 mm 7 m/s 739 mmHg 83%
    15:00 +17°C° 0 mm 7 m/s 739 mmHg 84%
    16:00 +17°C° 0 mm 7 m/s 739 mmHg 85%
    17:00 +16°C° 0.1 mm 7 m/s 740 mmHg 86%
    18:00 +15°C° 0.1 mm 7 m/s 740 mmHg 88%
    19:00 +15°C° 0.1 mm 7 m/s 740 mmHg 90%
    20:00 +15°C° 0.1 mm 7 m/s 741 mmHg 91%
    21:00 +14°C° 0.1 mm 7 m/s 741 mmHg 92%
    22:00 +14°C° 0.1 mm 7 m/s 741 mmHg 93%
    23:00 +14°C° 0.2 mm 7 m/s 742 mmHg 93%

    24 Junho, Segunda-feira

    Tempo Temperatura Precipitação Vento Pressão Humidade
    00:00 +14°C° 0.2 mm 7 m/s 742 mmHg 93%
    01:00 +14°C° 0.2 mm 7 m/s 742 mmHg 94%
    02:00 +12°C° 0.9 mm 7 m/s 742 mmHg 94%
    03:00 +13°C° 0.9 mm 6 m/s 743 mmHg 95%
    04:00 +13°C° 0.9 mm 6 m/s 743 mmHg 95%
    05:00 +13°C° 0.2 mm 6 m/s 743 mmHg 94%
    06:00 +13°C° 0.2 mm 5 m/s 744 mmHg 93%
    07:00 +13°C° 0.2 mm 5 m/s 744 mmHg 93%
    08:00 +13°C° 0 mm 5 m/s 745 mmHg 91%
    09:00 +13°C° 0 mm 4 m/s 745 mmHg 90%
    10:00 +14°C° 0 mm 4 m/s 745 mmHg 88%
    11:00 +17°C° 0 mm 4 m/s 745 mmHg 80%
    12:00 +19°C° 0 mm 5 m/s 746 mmHg 71%
    13:00 +21°C° 0 mm 5 m/s 746 mmHg 63%
    14:00 +21°C° 0 mm 5 m/s 746 mmHg 62%
    15:00 +21°C° 0 mm 4 m/s 746 mmHg 62%
    16:00 +21°C° 0 mm 4 m/s 746 mmHg 62%
    17:00 +20°C° 0 mm 4 m/s 746 mmHg 68%
    18:00 +19°C° 0 mm 3 m/s 746 mmHg 73%
    19:00 +18°C° 0 mm 2 m/s 746 mmHg 78%
    20:00 +17°C° 0 mm 2 m/s 747 mmHg 82%
    21:00 +16°C° 0 mm 2 m/s 747 mmHg 85%
    22:00 +14°C° 0 mm 2 m/s 747 mmHg 88%
    23:00 +14°C° 0 mm 2 m/s 747 mmHg 89%
    Mostrar mais